EW6434 Weather Reports


time (UTC)temp
F
wind
direction
speed
knots
gust
knots
rain 1hr
in
rain 24hr
in
rain mn
in
humidity
%
barometer
mb
20260505040031 39 90 0.0 0.0 0.00 0.08 0.07 56 1008.1
20260505034533 39 90 0.0 0.0 0.00 0.08 0.07 55 1007.9
20260505033030 40 90 0.0 0.0 0.00 0.08 0.07 53 1007.5
20260505031527 40 90 0.0 0.0 0.00 0.08 0.07 52 1007.3
20260505030041 41 90 0.0 0.0 0.00 0.08 0.07 51 1007.3
20260505024526 42 90 0.0 0.0 0.00 0.08 0.07 48 1006.8
20260505023030 43 90 0.0 0.0 0.00 0.08 0.07 48 1006.9
20260505021526 44 90 0.0 0.0 0.00 0.08 0.07 45 1006.7
20260505020025 46 90 0.0 0.0 0.00 0.08 0.07 39 1006.5
20260505014527 46 90 0.0 0.9 0.00 0.08 0.07 36 1006.7
20260505013023 47 245 0.0 0.0 0.00 0.08 0.07 36 1006.7
20260505011524 48 234 0.0 1.7 0.00 0.08 0.07 36 1006.5
20260505010023 48 262 0.0 1.7 0.00 0.08 0.07 33 1006.5
20260505004540 48 232 0.0 5.2 0.00 0.08 0.07 32 1006.5
20260505003021 49 94 0.9 4.3 0.00 0.08 0.07 33 1006.6
20260505001520 49 90 0.0 12.2 0.00 0.08 0.07 34 1006.8
20260505000019 50 118 0.0 6.1 0.00 0.08 0.07 38 1006.6
20260504234520 50 212 0.9 9.6 0.00 0.08 0.07 38 1006.5
20260504233021 50 96 1.7 9.6 0.00 0.08 0.07 36 1006.6
20260504231516 50 143 2.6 9.6 0.00 0.08 0.07 37 1006.5
20260504230017 51 102 4.3 14.8 0.00 0.08 0.07 35 1006.6
20260504224516 52 76 2.6 7.8 0.00 0.08 0.07 34 1006.4
20260504223014 51 240 0.0 7.0 0.00 0.08 0.07 37 1006.3
20260504221513 51 101 0.9 7.0 0.00 0.08 0.07 39 1006.4
20260504220011 51 58 3.5 9.6 0.00 0.08 0.07 40 1006.4
20260504214510 51 259 1.7 7.8 0.00 0.08 0.07 40 1006.5
20260504213021 51 224 1.7 7.8 0.00 0.08 0.07 39 1006.7
20260504211507 51 167 1.7 10.4 0.00 0.08 0.07 41 1006.9
20260504210106 51 66 2.6 7.8 0.00 0.08 0.07 40 1007.0
20260504204502 50 252 0.9 6.1 0.00 0.08 0.07 43 1007.0
20260504203002 50 228 2.6 9.6 0.00 0.08 0.07 43 1007.3
20260504201611 51 216 1.7 7.8 0.00 0.08 0.07 44 1007.2
20260504201501 51 218 1.7 7.8 0.00 0.08 0.07 45 1007.2
20260504200106 50 60 1.7 7.0 0.00 0.08 0.07 45 1007.2
20260504194605 51 235 0.9 6.1 0.00 0.08 0.07 47 1007.3
20260504193057 50 143 0.9 7.8 0.00 0.08 0.07 46 1007.1
20260504191618 49 236 1.7 7.0 0.00 0.08 0.07 48 1007.5
20260504190059 50 153 1.7 7.0 0.00 0.08 0.07 51 1007.3
20260504184602 49 122 0.9 7.8 0.00 0.08 0.07 51 1007.4
20260504183053 49 140 0.9 7.8 0.00 0.08 0.07 52 1007.4
20260504181551 49 207 0.9 7.0 0.00 0.08 0.07 55 1007.8
20260504180051 49 124 0.9 4.3 0.00 0.08 0.07 56 1007.9
20260504174549 49 167 1.7 5.2 0.00 0.08 0.07 55 1007.6
20260504173048 50 90 0.9 4.3 0.00 0.08 0.07 56 1007.6
20260504171545 49 113 0.9 4.3 0.00 0.08 0.07 59 1008.0
20260504081544 37 269 0.0 0.0 0.02 0.05 0.04 92 1011.8
20260504050020 41 25 0.0 1.7 0.00 0.00 0.00 75 1014.2
20260504044518 41 61 0.0 0.0 0.00 0.00 0.00 74 1014.2
20260504043018 42 61 0.0 0.0 0.00 0.00 0.00 71 1014.3
20260504041517 42 194 0.0 6.1 0.00 0.00 0.00 67 1014.4